Location: Unspecified
(49.2170°N, 0.0000°E)
Time: 10:35:25
(UTC+00:00)

Vanguard 1 - Pass Details

Date: 24 January 2021
Orbit: 649 x 3834 km, 34.2° (Epoch: 05 March)

Event Time Altitude Azimuth Distance (km) Brightness Sun altitude
Rises 19:13:44 0° 279° (W) 7,953 16.0 -24.2°
Reaches altitude 10° 19:20:30 10° 270° (W) 6,933 15.4 -25.3°
Maximum altitude 19:37:07 27° 224° (SW) 5,021 13.9 -28.0°
Drops below altitude 10° 19:50:01 10° 174° (S) 5,301 13.7 -30.1°
Sets 19:54:20 0° 162° (SSE) 5,858 13.8 -30.8°
